This is the latest recevied weather packets stored in our database for station/object VK3HAG. If no packets are shown the sender has not sent any weather packets the latest 10 day(s).
| Time | Temp. | Humidity | Pressure | Rain* | Wind** | Luminosity | Snow |
|---|---|---|---|---|---|---|---|
| 1777461304 | 12.22° C | 87% | 1026 hPa | 0 mm | - | - | - |
| 1777460405 | 12.78° C | 86% | 1025.9 hPa | 0 mm | - | - | - |
| 1777459504 | 13.33° C | 85% | 1025.9 hPa | 0 mm | - | - | - |
| 1777458605 | 13.89° C | 84% | 1025.8 hPa | 0 mm | - | - | - |
| 1777457704 | 14.44° C | 84% | 1025.7 hPa | 0 mm | - | - | - |
| 1777456805 | 15° C | 84% | 1025.8 hPa | 0 mm | - | - | - |
| 1777455904 | 15.56° C | 85% | 1025.7 hPa | 0 mm | - | - | - |
| 1777455005 | 15.56° C | 85% | 1025.7 hPa | 0 mm | - | - | - |
| 1777454104 | 16.11° C | 84% | 1025.7 hPa | 0 mm | - | - | - |
| 1777453204 | 16.11° C | 83% | 1025.5 hPa | 0 mm | - | - | - |
| 1777452304 | 16.67° C | 81% | 1025.4 hPa | 0 mm | - | - | - |
| 1777451405 | 17.22° C | 80% | 1025.2 hPa | 0 mm | - | - | - |
| 1777450504 | 17.78° C | 78% | 1025.1 hPa | 0 mm | - | - | - |
| 1777449604 | 18.33° C | 76% | 1025.1 hPa | 0 mm | - | - | - |
| 1777448704 | 18.89° C | 74% | 1025 hPa | 0 mm | - | - | - |
| 1777447804 | 20° C | 72% | 1024.9 hPa | 0 mm | - | - | - |
| 1777446904 | 20.56° C | 71% | 1024.7 hPa | 0 mm | - | - | - |
| 1777446004 | 21.67° C | 68% | 1024.7 hPa | 0 mm | - | - | - |
| 1777445104 | 22.22° C | 64% | 1024.6 hPa | 0 mm | - | - | - |
| 1777444204 | 22.78° C | 61% | 1024.6 hPa | 0 mm | - | - | - |
| 1777443305 | 23.33° C | 61% | 1024.6 hPa | 0 mm | - | - | - |
| 1777442405 | 23.33° C | 61% | 1024.7 hPa | 0 mm | - | - | - |
| 1777441504 | 23.33° C | 62% | 1024.7 hPa | 0 mm | - | - | - |
| 1777440605 | 22.78° C | 65% | 1024.6 hPa | 0 mm | - | - | - |
| 1777439705 | 22.78° C | 64% | 1024.7 hPa | 0 mm | - | - | - |
* Rain latest hour (hover to see other rain measurements)
** Current wind speed in m/s (hover to see current wind gust speed)